La Palma > ESTACION METEOROLÓGICA Los Sauces

DATOS ACTUALES Online

Ultima actulizacion 6 minutos

19.8 ºC

Temperatura

67

Humedad (%)

1018.5

Presión (mb)

0

Precipitación (mm)

3.06 SW

Viento (Km/h)

DATOS DIARIOS

Temperatura últimas 24 horas (ºC)

Humedad últimas 24 horas (%)

Presión atmosférica últimas 24 horas (mb)

Precipitaciones últimas 23 horas (mm)

Viento últimas 24 horas (Km/h)

Hora Temperatura (°C) ºC Precipitación (mm) mm Presión (mb) mb Humedad (%) % Viento (Km/h) km/h
15 - 22:00 18.8 0.6 1019 88 0 SE
15 - 23:00 18.3 0.6 1019 88 3.06 NE
16 - 00:00 18.7 0 1019 87 0 SW
16 - 01:00 18.6 0 1019 86 0 SW
16 - 02:00 18.4 0 1018 85 1.62 SW
16 - 03:00 18.1 0 1018 84 3.06 W
16 - 04:00 18.3 0 1018 85 0 NW
16 - 05:00 18.4 0 1018 84 0 NW
16 - 06:00 18.3 0 1017 82 0 NW
16 - 07:00 18 0 1018 87 0 NW
16 - 08:00 18.9 0 1018 86 0 NW
16 - 09:00 20.2 0 1018 85 0 SE
16 - 10:00 20.8 0 1018 85 4.68 SE
16 - 11:00 21.2 0 1019 84 0 SE
16 - 12:00 22 0 1019 79 0 SE
16 - 13:00 22.2 0 1018 80 3.06 SE
16 - 14:00 22.4 0 1018 78 3.06 SE
16 - 15:00 21.5 0 1018 81 0 SE
16 - 16:00 21.9 0 1017 78 6.3 E
16 - 17:00 21.1 0 1017 79 1.62 E
16 - 18:00 21 0 1017 79 1.62 SE
16 - 19:00 21.8 0 1017 74 0 SE
16 - 20:00 20.1 0 1018 66 0 SW
16 - 21:00 19.1 0 1018 58 0 SW
16 - 22:00 19.8 0 1019 67 3.06 SW
Apalmet utiliza cookies propias y de terceros para mejorar la usabilidad y la experiencia web. Política de cookies.